カタログに戻る

DELTA 1 DEB

運用中UNKNOWN
NORAD 2700·DEBRIS·🇺🇸 United States

打ち上げ Nov 6, 1965 から Cape Canaveral Space Force Station

Loading…

次のパス (今後24時間)

TLE

最新Source: Space-Track

元期: Sep 13, 2026, 13:33 UTC

1  2700U 65089C   26256.56489287 -.00000297  00000-0 -10984-2 0  9991
2  2700  59.5934  93.4362 0722054 133.4984 267.2956 12.08992101722141

AllMySatでDELTA 1 DEBをリアルタイム追跡

Download on the App Store